Weather History for KLYH - August, 2012

Change the Weather History Date:

Saturday, August 11, 2012

  Actual Average Record
Temperature  
Mean Temperature 75 °F 75 °F  
Max Temperature 82 °F 86 °F 100 °F (1926)
Min Temperature 68 °F 64 °F 55 °F (2008)
Degree Days  
Heating Degree Days 0 0  
Month to date heating degree days 0 0  
Since 1 June heating degree days 14 15  
Since 1 July heating degree days 0 1  
Cooling Degree Days 10 10  
Month to date cooling degree days 142 110  
Year to date cooling degree days 946 724  
Since 1 June cooling degree days 789 642  
Growing Degree Days 24 (Base 50)    
Moisture  
Dew Point 66 °F    
Average Humidity 69    
Maximum Humidity 93    
Minimum Humidity 45    
Precipitation  
Precipitation 0.06 in 0.10 in 7.52 in (1928)
Month to date precipitation 0.93 1.22  
Year to date precipitation 20.78 25.89  
Snow  
Snow 0.00 in - - ()
Month to date snowfall 0.0  
Since 1 June snowfall 0.0  
Since 1 July snowfall 0.0  
Snow Depth 0.00 in    
Sea Level Pressure  
Sea Level Pressure 29.88 in    
Wind  
Wind Speed 4 mph (SSW)    
Max Wind Speed 12 mph    
Max Gust Speed 16 mph    
Visibility 9 miles    
Events Rain , Thunderstorm    
T = Trace of Precipitation, MM = Missing Value Source: NWS Daily Summary

Daily Weather History Graph

Daily Weather History Graph

Search for Another Location

Airport or City:

Trip Planner

Search our weather history database for the weather conditions in past years. The results will help you decide how hot, cold, wet, or windy it might be!

Date:

Astronomy

Aug. 11, 2012 Rise Set
Actual Time 6:30 AM EDT 8:13 PM EDT
Civil Twilight 6:02 AM EDT 8:41 PM EDT
Nautical Twilight 5:28 AM EDT 9:14 PM EDT
Astronomical Twilight 4:52 AM EDT 9:50 PM EDT
Moon 12:59 AM EDT (8/11) 3:43 PM EDT (8/11)
Length of Visible Light 14h 39m
Length of Day
13h 43m
Waning Crescent, 33% of the Moon is Illuminated
Aug 11
Waning Crescent
Aug 17
New
Aug 24
First Quarter
Aug 31
Full
Sep 8
Last Quarter

Hourly Weather History & Observations

Time (EDT) Temp. Heat Index Dew Point Humidity Pressure Visibility Wind Dir Wind Speed Gust Speed Precip Events Conditions
12:01 AM 71.6 °F - 69.8 °F 94% 29.86 in 10.0 mi SSW 3.5 mph - N/A   Mostly Cloudy
12:54 AM 71.1 °F - 69.1 °F 93% 29.83 in 8.0 mi SW 3.5 mph - N/A   Scattered Clouds
1:03 AM 71.6 °F - 69.8 °F 94% 29.85 in 10.0 mi SW 4.6 mph - N/A   Mostly Cloudy
1:10 AM 71.6 °F - 69.8 °F 94% 29.84 in 10.0 mi Calm Calm - N/A   Scattered Clouds
1:21 AM 71.6 °F - 69.8 °F 94% 29.85 in 9.0 mi Calm Calm - N/A   Mostly Cloudy
1:30 AM 71.6 °F - 69.8 °F 94% 29.85 in 8.0 mi SSW 5.8 mph - N/A   Mostly Cloudy
1:54 AM 72.0 °F - 70.0 °F 93% 29.83 in 8.0 mi SSW 6.9 mph - 0.00 in   Scattered Clouds
2:45 AM 69.8 °F - 68.0 °F 94% 29.86 in 7.0 mi SSW 3.5 mph - 0.04 in Rain , Thunderstorm Light Rain
2:54 AM 70.0 °F - 68.0 °F 93% 29.83 in 10.0 mi SSW 4.6 mph - 0.04 in Rain Light Rain
3:54 AM 69.1 °F - 66.9 °F 93% 29.84 in 8.0 mi SW 3.5 mph - 0.02 in Rain Light Rain
4:54 AM 68.0 °F - 66.9 °F 96% 29.83 in 9.0 mi Calm Calm - 0.00 in   Mostly Cloudy
5:54 AM 68.0 °F - 66.9 °F 96% 29.86 in 7.0 mi SSE 4.6 mph - N/A   Mostly Cloudy
6:54 AM 68.0 °F - 66.0 °F 93% 29.88 in 4.0 mi North - - N/A   Partly Cloudy
7:12 AM 68.0 °F - 66.2 °F 94% 29.92 in 4.0 mi SSW 3.5 mph - N/A   Scattered Clouds
7:54 AM 69.1 °F - 66.9 °F 93% 29.90 in 7.0 mi SW 3.5 mph - N/A   Partly Cloudy
8:54 AM 70.0 °F - 66.9 °F 90% 29.89 in 9.0 mi Calm Calm - N/A   Clear
9:54 AM 73.9 °F - 66.9 °F 79% 29.90 in 10.0 mi Variable 3.5 mph - N/A   Scattered Clouds
10:54 AM 77.0 °F - 66.0 °F 69% 29.91 in 10.0 mi Calm Calm - N/A   Partly Cloudy
11:54 AM 75.9 °F - 63.0 °F 64% 29.92 in 10.0 mi South 3.5 mph - N/A   Partly Cloudy
12:54 PM 80.1 °F 80.9 °F 60.1 °F 50% 29.91 in 10.0 mi Calm Calm - N/A   Mostly Cloudy
1:54 PM 78.1 °F - 60.1 °F 54% 29.90 in 10.0 mi SSW 5.8 mph - N/A   Overcast
2:54 PM 80.1 °F 80.6 °F 57.9 °F 47% 29.89 in 10.0 mi WSW 6.9 mph - N/A   Scattered Clouds
3:54 PM 80.1 °F 80.7 °F 59.0 °F 48% 29.89 in 10.0 mi Variable 4.6 mph - N/A   Mostly Cloudy
4:54 PM 81.0 °F 81.7 °F 61.0 °F 50% 29.88 in 10.0 mi South 4.6 mph - N/A   Overcast
5:54 PM 81.0 °F 82.2 °F 63.0 °F 54% 29.88 in 10.0 mi South 8.1 mph - N/A   Clear
6:54 PM 79.0 °F - 63.0 °F 58% 29.88 in 10.0 mi SSW 3.5 mph - N/A   Partly Cloudy
7:54 PM 77.0 °F - 66.0 °F 69% 29.91 in 10.0 mi Calm Calm - N/A   Partly Cloudy
8:54 PM 73.9 °F - 66.9 °F 79% 29.92 in 10.0 mi South 4.6 mph - N/A   Clear
9:54 PM 73.0 °F - 69.1 °F 87% 29.94 in 10.0 mi South 3.5 mph - N/A   Clear
10:54 PM 72.0 °F - 69.1 °F 91% 29.94 in 10.0 mi South 4.6 mph - N/A   Clear
11:54 PM 72.0 °F - 69.1 °F 91% 29.94 in 10.0 mi South 8.1 mph - N/A   Mostly Cloudy